{"data":{"norad_id":65458,"intl_designator":"2025-195A","name":"STARLINK-34784","alt_names":[],"object_type":"PAYLOAD","status":"ACTIVE","operator":null,"country":"US","launch_date":"2025-09-03","launch_site_code":"AFETR","launch_vehicle":null,"mission":null,"orbit_class":"UNKNOWN","rcs_meters":null,"size_class":null,"mass_kg":null,"dimensions":null,"purposes":["comms"],"wikipedia_slug":null,"has_3d_model":false,"image_url":null,"decayed_at":null,"tle_current":{"epoch":"2026-05-24T17:47:24.794880Z","epoch_age_seconds":100572,"freshness":"FRESH","line1":"1 65458U 25195A   26144.74125920  .00015275  00000+0  50259-3 0  9990","line2":"2 65458  53.1604 264.5052 0001165  75.4958 284.6173 15.31724364 41646","mean_motion":15.31724364,"eccentricity":0.0001165,"inclination_deg":53.1604,"raan_deg":264.5052,"arg_perigee_deg":75.4958,"mean_anomaly_deg":284.6173,"bstar":0.00050259,"rev_number":4164,"period_min":94.011692563245,"perigee_km":469.86948266323,"apogee_km":471.46525408106,"semimajor_km":6848.8043683721,"source":"CELESTRAK","updated_at":"2026-05-25T13:38:20.811301Z"}}}